Time,TemperatureF,DewpointF,PressureIn,WindDirection,WindDirectionDegrees,WindSpeedMPH,WindSpeedGustMPH,Humidity,HourlyPrecipIn,Conditions,Clouds,dailyrainin,SoftwareType,DateUTC
2013-03-15 00:00:00,52.0,36.3,30.19,SSW,202,0.0,0.0,55,0.00,CLR,,0.00,WeatherDisplay:10.37,2013-03-15 04:00:00,
2013-03-15 00:05:00,51.6,36.0,30.20,SSW,202,0.0,0.0,55,0.00,CLR,,0.00,WeatherDisplay:10.37,2013-03-15 04:05:00,
2013-03-15 00:10:00,51.6,36.4,30.20,SSW,202,0.0,0.0,56,0.00,CLR,,0.00,WeatherDisplay:10.37,2013-03-15 04:10:00,
2013-03-15 00:15:00,51.4,36.3,30.20,SSW,202,0.0,0.0,56,0.00,CLR,,0.00,WeatherDisplay:10.37,2013-03-15 04:15:00,
2013-03-15 00:20:00,51.4,36.3,30.20,SSW,202,0.0,0.0,56,0.00,CLR,,0.00,WeatherDisplay:10.37,2013-03-15 04:20:00,
2013-03-15 00:25:00,51.3,36.1,30.20,SSW,202,0.0,0.0,56,0.00,CLR,,0.00,WeatherDisplay:10.37,2013-03-15 04:25:00,
2013-03-15 00:30:00,51.3,36.5,30.20,SSW,202,0.0,0.0,57,0.00,CLR,,0.00,WeatherDisplay:10.37,2013-03-15 04:30:00,
2013-03-15 00:35:00,51.3,36.5,30.20,SSW,202,0.0,0.0,57,0.00,CLR,,0.00,WeatherDisplay:10.37,2013-03-15 04:35:00,
2013-03-15 00:40:00,51.3,37.0,30.20,SSW,202,0.0,0.0,58,0.00,CLR,,0.00,WeatherDisplay:10.37,2013-03-15 04:40:00,
2013-03-15 00:45:00,51.3,37.4,30.20,SSW,202,0.0,0.0,59,0.00,CLR,,0.00,WeatherDisplay:10.37,2013-03-15 04:45:00,
2013-03-15 00:50:00,51.3,37.4,30.19,SSW,202,0.0,0.0,59,0.00,CLR,,0.00,WeatherDisplay:10.37,2013-03-15 04:50:00,
2013-03-15 00:55:00,51.3,37.8,30.20,SSW,202,0.0,0.0,60,0.00,CLR,,0.00,WeatherDisplay:10.37,2013-03-15 04:55:00,
2013-03-15 01:00:00,51.3,37.8,30.20,SSW,202,0.0,0.0,60,0.00,CLR,,0.00,WeatherDisplay:10.37,2013-03-15 05:00:00,
2013-03-15 01:05:00,51.3,37.8,30.20,SSW,202,0.0,0.0,60,0.00,CLR,,0.00,WeatherDisplay:10.37,2013-03-15 05:05:00,
2013-03-15 01:10:00,51.4,38.4,30.19,SSW,202,0.0,0.0,61,0.00,CLR,,0.00,WeatherDisplay:10.37,2013-03-15 05:10:00,
2013-03-15 01:15:00,51.4,38.4,30.19,SSW,202,0.0,0.0,61,0.00,CLR,,0.00,WeatherDisplay:10.37,2013-03-15 05:15:00,
2013-03-15 01:20:00,51.6,39.0,30.19,SSW,202,0.0,0.0,62,0.00,CLR,,0.00,WeatherDisplay:10.37,2013-03-15 05:20:00,
2013-03-15 01:25:00,51.6,39.0,30.19,SSW,202,0.0,0.0,62,0.00,CLR,,0.00,WeatherDisplay:10.37,2013-03-15 05:25:00,
2013-03-15 01:30:00,51.8,39.2,30.19,SSW,202,0.0,0.0,62,0.00,CLR,,0.00,WeatherDisplay:10.37,2013-03-15 05:30:00,
2013-03-15 01:35:00,51.6,39.0,30.19,SSW,202,0.0,0.0,62,0.00,CLR,,0.00,WeatherDisplay:10.37,2013-03-15 05:35:00,
2013-03-15 01:40:00,51.5,38.5,30.19,SSW,202,0.0,0.0,61,0.00,CLR,,0.00,WeatherDisplay:10.37,2013-03-15 05:40:00,
2013-03-15 01:45:00,51.4,38.4,30.19,SSW,202,0.0,0.0,61,0.00,CLR,,0.00,WeatherDisplay:10.37,2013-03-15 05:45:00,
2013-03-15 01:50:00,51.4,38.4,30.19,SSW,202,0.0,0.0,61,0.00,CLR,,0.00,WeatherDisplay:10.37,2013-03-15 05:50:00,
2013-03-15 01:55:00,51.4,38.4,30.19,SSW,202,0.0,0.0,61,0.00,CLR,,0.00,WeatherDisplay:10.37,2013-03-15 05:55:00,
2013-03-15 02:00:00,51.4,38.8,30.19,SSW,202,0.0,0.0,62,0.00,CLR,,0.00,WeatherDisplay:10.37,2013-03-15 06:00:00,
2013-03-15 02:05:00,51.3,38.7,30.19,SSW,202,0.0,0.0,62,0.00,CLR,,0.00,WeatherDisplay:10.37,2013-03-15 06:05:00,
2013-03-15 02:10:00,51.4,39.3,30.19,SSW,202,0.0,0.0,63,0.00,CLR,,0.00,WeatherDisplay:10.37,2013-03-15 06:10:00,
2013-03-15 02:20:00,51.6,39.4,30.20,SSW,202,0.0,0.0,63,0.00,CLR,,0.00,WeatherDisplay:10.37,2013-03-15 06:20:00,
2013-03-15 02:25:00,51.4,39.3,30.20,SSW,202,0.0,0.0,63,0.00,CLR,,0.00,WeatherDisplay:10.37,2013-03-15 06:25:00,
2013-03-15 02:30:00,51.4,39.3,30.20,SSW,202,0.0,0.0,63,0.00,CLR,,0.00,WeatherDisplay:10.37,2013-03-15 06:30:00,
2013-03-15 02:35:00,51.4,39.3,30.20,SSW,202,0.0,0.0,63,0.00,CLR,,0.00,WeatherDisplay:10.37,2013-03-15 06:35:00,
2013-03-15 02:40:00,51.3,38.7,30.19,SSW,202,0.0,0.0,62,0.00,CLR,,0.00,WeatherDisplay:10.37,2013-03-15 06:40:00,
2013-03-15 02:45:00,50.9,37.9,30.20,SSW,202,0.0,0.0,61,0.00,CLR,,0.00,WeatherDisplay:10.37,2013-03-15 06:45:00,
2013-03-15 02:50:00,50.8,37.9,30.19,SSW,202,0.0,0.0,61,0.00,CLR,,0.00,WeatherDisplay:10.37,2013-03-15 06:50:00,
2013-03-15 02:55:00,50.4,37.5,30.19,SSW,202,0.0,0.0,61,0.00,CLR,,0.00,WeatherDisplay:10.37,2013-03-15 06:55:00,
2013-03-15 03:00:00,50.4,37.4,30.19,SSW,202,0.0,0.0,61,0.00,CLR,,0.00,WeatherDisplay:10.37,2013-03-15 07:00:00,
2013-03-15 03:05:00,50.2,37.2,30.19,SSW,202,0.0,0.0,61,0.00,CLR,,0.00,WeatherDisplay:10.37,2013-03-15 07:05:00,
2013-03-15 03:10:00,49.6,36.7,30.19,SSW,202,0.0,0.0,61,0.00,CLR,,0.00,WeatherDisplay:10.37,2013-03-15 07:10:00,
2013-03-15 03:15:00,49.5,36.1,30.18,SSW,202,0.0,0.0,60,0.00,CLR,,0.00,WeatherDisplay:10.37,2013-03-15 07:15:00,
2013-03-15 03:20:00,49.1,35.8,30.18,SSW,202,0.0,0.0,60,0.00,CLR,,0.00,WeatherDisplay:10.37,2013-03-15 07:20:00,
2013-03-15 03:25:00,48.9,36.1,30.19,SSW,202,0.0,0.0,61,0.00,CLR,,0.00,WeatherDisplay:10.37,2013-03-15 07:25:00,
2013-03-15 03:30:00,48.6,35.7,30.19,SSW,202,0.0,0.0,61,0.00,CLR,,0.00,WeatherDisplay:10.37,2013-03-15 07:30:00,
2013-03-15 03:35:00,48.4,35.5,30.18,SSW,202,0.0,0.0,61,0.00,CLR,,0.00,WeatherDisplay:10.37,2013-03-15 07:35:00,
2013-03-15 03:40:00,48.0,35.2,30.19,SSW,202,0.0,0.0,61,0.00,CLR,,0.00,WeatherDisplay:10.37,2013-03-15 07:40:00,
2013-03-15 03:45:00,47.8,35.0,30.18,SSW,202,0.0,0.0,61,0.00,CLR,,0.00,WeatherDisplay:10.37,2013-03-15 07:45:00,
2013-03-15 03:50:00,47.7,34.9,30.19,SSW,202,0.0,0.0,61,0.00,CLR,,0.00,WeatherDisplay:10.37,2013-03-15 07:50:00,
2013-03-15 03:55:00,47.3,34.5,30.19,SSW,202,0.0,0.0,61,0.00,CLR,,0.00,WeatherDisplay:10.37,2013-03-15 07:55:00,
2013-03-15 04:00:00,46.9,34.2,30.18,SSW,202,0.0,0.0,61,0.00,CLR,,0.00,WeatherDisplay:10.37,2013-03-15 08:00:00,
2013-03-15 04:05:00,46.8,34.4,30.18,SSW,202,0.0,0.0,62,0.00,CLR,,0.00,WeatherDisplay:10.37,2013-03-15 08:05:00,
2013-03-15 04:10:00,46.6,34.2,30.18,SSW,202,0.0,0.0,62,0.00,CLR,,0.00,WeatherDisplay:10.37,2013-03-15 08:10:00,
2013-03-15 04:15:00,46.4,34.5,30.19,SSW,202,0.0,0.0,63,0.00,CLR,,0.00,WeatherDisplay:10.37,2013-03-15 08:15:00,
2013-03-15 04:20:00,46.0,34.1,30.18,SSW,202,0.0,0.0,63,0.00,CLR,,0.00,WeatherDisplay:10.37,2013-03-15 08:20:00,
2013-03-15 04:30:00,45.8,33.9,30.18,SSW,202,0.0,0.0,63,0.00,CLR,,0.00,WeatherDisplay:10.37,2013-03-15 08:30:00,
2013-03-15 04:35:00,45.5,33.6,30.18,SSW,202,0.0,0.0,63,0.00,CLR,,0.00,WeatherDisplay:10.37,2013-03-15 08:35:00,
2013-03-15 04:40:00,45.5,33.6,30.18,SSW,202,0.0,0.0,63,0.00,CLR,,0.00,WeatherDisplay:10.37,2013-03-15 08:40:00,
2013-03-15 04:45:00,45.1,33.7,30.18,SSW,202,0.0,0.0,64,0.00,CLR,,0.00,WeatherDisplay:10.37,2013-03-15 08:45:00,
2013-03-15 04:50:00,45.0,33.5,30.18,SSW,202,0.0,0.0,64,0.00,CLR,,0.00,WeatherDisplay:10.37,2013-03-15 08:50:00,
2013-03-15 05:00:00,44.6,33.5,30.18,SSW,202,0.0,0.0,65,0.00,CLR,,0.00,WeatherDisplay:10.37,2013-03-15 09:00:00,
2013-03-15 05:05:00,44.2,33.2,30.18,SSW,202,0.0,0.0,65,0.00,CLR,,0.00,WeatherDisplay:10.37,2013-03-15 09:05:00,
2013-03-15 05:10:00,44.2,33.2,30.18,SSW,202,0.0,0.0,65,0.00,CLR,,0.00,WeatherDisplay:10.37,2013-03-15 09:10:00,
2013-03-15 05:15:00,44.1,33.0,30.18,SSW,202,0.0,0.0,65,0.00,CLR,,0.00,WeatherDisplay:10.37,2013-03-15 09:15:00,
2013-03-15 05:20:00,43.7,32.7,30.18,SSW,202,0.0,0.0,65,0.00,CLR,,0.00,WeatherDisplay:10.37,2013-03-15 09:20:00,
2013-03-15 05:25:00,43.5,32.5,30.18,SSW,202,0.0,0.0,65,0.00,CLR,,0.00,WeatherDisplay:10.37,2013-03-15 09:25:00,
2013-03-15 05:30:00,43.5,33.3,30.18,SSW,202,0.0,0.0,67,0.00,CLR,,0.00,WeatherDisplay:10.37,2013-03-15 09:30:00,
2013-03-15 05:35:00,43.3,33.1,30.18,SSW,202,0.0,0.0,67,0.00,CLR,,0.00,WeatherDisplay:10.37,2013-03-15 09:35:00,
2013-03-15 05:40:00,43.2,32.9,30.19,SSW,202,0.0,0.0,67,0.00,CLR,,0.00,WeatherDisplay:10.37,2013-03-15 09:40:00,
2013-03-15 05:45:00,43.0,32.8,30.19,SSW,202,0.0,0.0,67,0.00,CLR,,0.00,WeatherDisplay:10.37,2013-03-15 09:45:00,
2013-03-15 05:50:00,43.0,32.8,30.19,SSW,202,0.0,0.0,67,0.00,CLR,,0.00,WeatherDisplay:10.37,2013-03-15 09:50:00,
2013-03-15 06:00:00,42.4,32.3,30.20,SSW,202,0.0,0.0,67,0.00,CLR,,0.00,WeatherDisplay:10.37,2013-03-15 10:00:00,
2013-03-15 06:05:00,42.4,32.6,30.20,SSW,202,0.0,0.0,68,0.00,CLR,,0.00,WeatherDisplay:10.37,2013-03-15 10:05:00,
2013-03-15 06:10:00,42.3,32.4,30.20,SSW,202,0.0,0.0,68,0.00,CLR,,0.00,WeatherDisplay:10.37,2013-03-15 10:10:00,
2013-03-15 06:15:00,42.2,32.4,30.19,SSW,202,0.0,0.0,68,0.00,CLR,,0.00,WeatherDisplay:10.37,2013-03-15 10:15:00,
2013-03-15 06:20:00,41.9,32.1,30.20,SSW,202,0.0,0.0,68,0.00,CLR,,0.00,WeatherDisplay:10.37,2013-03-15 10:20:00,
2013-03-15 06:25:00,41.9,32.1,30.20,SSW,202,0.0,0.0,68,0.00,CLR,,0.00,WeatherDisplay:10.37,2013-03-15 10:25:00,
2013-03-15 06:30:00,41.8,32.4,30.19,SSW,202,0.0,0.0,69,0.00,CLR,,0.00,WeatherDisplay:10.37,2013-03-15 10:30:00,
2013-03-15 06:40:00,41.7,32.7,30.20,SSW,202,0.0,0.0,70,0.00,CLR,,0.00,WeatherDisplay:10.37,2013-03-15 10:40:00,
2013-03-15 06:45:00,41.5,32.5,30.20,SSW,202,0.0,0.0,70,0.00,CLR,,0.00,WeatherDisplay:10.37,2013-03-15 10:45:00,
2013-03-15 06:50:00,41.5,32.5,30.20,SSW,202,0.0,0.0,70,0.00,CLR,,0.00,WeatherDisplay:10.37,2013-03-15 10:50:00,
2013-03-15 06:55:00,41.4,32.3,30.20,SSW,202,0.0,0.0,70,0.00,CLR,,0.00,WeatherDisplay:10.37,2013-03-15 10:55:00,
2013-03-15 07:05:00,41.2,32.1,30.20,SSW,202,0.0,0.0,70,0.00,CLR,,0.00,WeatherDisplay:10.37,2013-03-15 11:05:00,
2013-03-15 07:10:00,41.2,32.1,30.20,SSW,202,0.0,0.0,70,0.00,CLR,,0.00,WeatherDisplay:10.37,2013-03-15 11:10:00,
2013-03-15 07:15:00,41.2,32.5,30.20,SSW,202,0.0,0.0,71,0.00,CLR,,0.00,WeatherDisplay:10.37,2013-03-15 11:15:00,
2013-03-15 07:20:00,41.2,32.5,30.20,SSW,202,0.0,0.0,71,0.00,CLR,,0.00,WeatherDisplay:10.37,2013-03-15 11:20:00,
2013-03-15 07:25:00,40.8,32.1,30.20,SSW,202,0.0,0.0,71,0.00,CLR,,0.00,WeatherDisplay:10.37,2013-03-15 11:25:00,
2013-03-15 07:30:00,40.8,32.2,30.21,SSW,202,0.0,0.0,71,0.00,CLR,,0.00,WeatherDisplay:10.37,2013-03-15 11:30:00,
2013-03-15 07:35:00,40.6,32.0,30.20,SSW,202,0.0,0.0,71,0.00,CLR,,0.00,WeatherDisplay:10.37,2013-03-15 11:35:00,
2013-03-15 07:40:00,40.6,32.0,30.20,SSW,202,0.0,0.0,71,0.00,CLR,,0.00,WeatherDisplay:10.37,2013-03-15 11:40:00,
2013-03-15 07:45:00,40.6,32.0,30.20,SSW,202,0.0,0.0,71,0.00,CLR,,0.00,WeatherDisplay:10.37,2013-03-15 11:45:00,
2013-03-15 07:50:00,40.6,32.0,30.20,SSW,202,0.0,0.0,71,0.00,CLR,,0.00,WeatherDisplay:10.37,2013-03-15 11:50:00,
2013-03-15 07:55:00,40.6,31.9,30.21,SSW,202,0.0,0.0,71,0.00,CLR,,0.00,WeatherDisplay:10.37,2013-03-15 11:55:00,
2013-03-15 08:00:00,40.5,32.1,30.21,SSW,202,0.0,0.0,72,0.00,CLR,,0.00,WeatherDisplay:10.37,2013-03-15 12:00:00,
2013-03-15 08:05:00,40.6,32.3,30.22,SSW,202,0.0,0.0,72,0.00,CLR,,0.00,WeatherDisplay:10.37,2013-03-15 12:05:00,
2013-03-15 08:10:00,40.6,32.3,30.21,SSW,202,0.0,0.0,72,0.00,CLR,,0.00,WeatherDisplay:10.37,2013-03-15 12:10:00,
2013-03-15 08:15:00,40.6,32.3,30.21,SSW,202,0.0,0.0,72,0.00,CLR,,0.00,WeatherDisplay:10.37,2013-03-15 12:15:00,
2013-03-15 08:20:00,40.6,32.7,30.22,SSW,202,0.0,0.0,73,0.00,CLR,,0.00,WeatherDisplay:10.37,2013-03-15 12:20:00,
2013-03-15 08:25:00,41.1,33.1,30.22,SSW,202,0.0,0.0,73,0.00,CLR,,0.00,WeatherDisplay:10.37,2013-03-15 12:25:00,
2013-03-15 08:30:00,41.2,33.2,30.22,SSW,202,0.0,0.0,73,0.00,CLR,,0.00,WeatherDisplay:10.37,2013-03-15 12:30:00,
2013-03-15 08:35:00,41.4,33.4,30.23,SSW,202,0.0,0.0,73,0.00,CLR,,0.00,WeatherDisplay:10.37,2013-03-15 12:35:00,
2013-03-15 08:45:00,41.9,33.9,30.23,SSW,202,0.0,0.0,73,0.00,CLR,,0.00,WeatherDisplay:10.37,2013-03-15 12:45:00,
2013-03-15 08:50:00,42.3,34.2,30.23,SSW,202,0.0,0.0,73,0.00,CLR,,0.00,WeatherDisplay:10.37,2013-03-15 12:50:00,
2013-03-15 08:55:00,43.0,35.3,30.23,SSW,202,0.0,0.0,74,0.00,CLR,,0.00,WeatherDisplay:10.37,2013-03-15 12:55:00,
2013-03-15 09:00:00,43.7,36.3,30.23,SSW,202,0.0,0.0,75,0.00,CLR,,0.00,WeatherDisplay:10.37,2013-03-15 13:00:00,
2013-03-15 09:05:00,44.6,37.2,30.23,SSW,202,0.0,0.0,75,0.00,CLR,,0.00,WeatherDisplay:10.37,2013-03-15 13:05:00,
2013-03-15 09:10:00,46.0,39.2,30.23,SSW,202,0.0,0.0,77,0.00,CLR,,0.00,WeatherDisplay:10.37,2013-03-15 13:10:00,
2013-03-15 09:15:00,48.0,41.5,30.23,SSW,202,0.0,0.0,78,0.00,CLR,,0.00,WeatherDisplay:10.37,2013-03-15 13:15:00,
2013-03-15 09:20:00,49.7,43.4,30.23,SSW,202,0.0,0.0,79,0.00,CLR,,0.00,WeatherDisplay:10.37,2013-03-15 13:20:00,
2013-03-15 09:25:00,51.3,45.0,30.24,SSW,202,0.0,0.0,79,0.00,CLR,,0.00,WeatherDisplay:10.37,2013-03-15 13:25:00,
2013-03-15 09:30:00,52.2,45.5,30.24,SSW,202,0.0,0.0,78,0.00,CLR,,0.00,WeatherDisplay:10.37,2013-03-15 13:30:00,
2013-03-15 09:35:00,53.8,46.8,30.24,SSW,202,0.0,0.0,77,0.00,CLR,,0.00,WeatherDisplay:10.37,2013-03-15 13:35:00,
2013-03-15 09:40:00,55.2,47.4,30.24,SSW,202,0.0,0.0,75,0.00,CLR,,0.00,WeatherDisplay:10.37,2013-03-15 13:40:00,
2013-03-15 09:45:00,56.3,47.0,30.24,SSW,202,0.0,0.0,71,0.00,CLR,,0.00,WeatherDisplay:10.37,2013-03-15 13:45:00,
2013-03-15 09:50:00,57.4,46.5,30.24,SSW,202,0.0,0.0,67,0.00,CLR,,0.00,WeatherDisplay:10.37,2013-03-15 13:50:00,
2013-03-15 09:55:00,58.6,45.6,30.24,WSW,244,0.0,0.0,62,0.00,CLR,,0.00,WeatherDisplay:10.37,2013-03-15 13:55:00,
2013-03-15 10:00:00,59.7,44.5,30.23,NW,307,0.0,0.0,57,0.00,CLR,,0.00,WeatherDisplay:10.37,2013-03-15 14:00:00,
2013-03-15 10:05:00,60.0,42.8,30.24,WNW,294,0.0,0.0,53,0.00,CLR,,0.00,WeatherDisplay:10.37,2013-03-15 14:05:00,
2013-03-15 10:10:00,61.1,41.8,30.24,NW,306,0.0,0.0,49,0.00,CLR,,0.00,WeatherDisplay:10.37,2013-03-15 14:10:00,
2013-03-15 10:15:00,61.7,40.7,30.24,NW,315,0.0,0.0,46,0.00,CLR,,0.00,WeatherDisplay:10.37,2013-03-15 14:15:00,
2013-03-15 10:20:00,62.8,41.7,30.24,NW,315,0.0,0.0,46,0.00,CLR,,0.00,WeatherDisplay:10.37,2013-03-15 14:20:00,
2013-03-15 10:25:00,63.3,41.6,30.24,NW,315,0.0,0.0,45,0.00,CLR,,0.00,WeatherDisplay:10.37,2013-03-15 14:25:00,
2013-03-15 10:30:00,64.8,41.1,30.24,NW,315,0.0,0.0,42,0.00,CLR,,0.00,WeatherDisplay:10.37,2013-03-15 14:30:00,
2013-03-15 10:35:00,65.5,40.5,30.25,NW,315,0.0,0.0,40,0.00,CLR,,0.00,WeatherDisplay:10.37,2013-03-15 14:35:00,
2013-03-15 10:40:00,66.7,40.3,30.24,NW,315,0.0,0.0,38,0.00,CLR,,0.00,WeatherDisplay:10.37,2013-03-15 14:40:00,
2013-03-15 10:45:00,67.5,39.6,30.24,NNW,332,0.0,0.0,36,0.00,CLR,,0.00,WeatherDisplay:10.37,2013-03-15 14:45:00,
2013-03-15 10:50:00,67.7,38.3,30.24,North,9,0.0,0.0,34,0.00,CLR,,0.00,WeatherDisplay:10.37,2013-03-15 14:50:00,
2013-03-15 10:55:00,68.2,37.2,30.25,NNE,22,0.0,0.0,32,0.00,CLR,,0.00,WeatherDisplay:10.37,2013-03-15 14:55:00,
2013-03-15 11:00:00,68.4,36.5,30.24,NNE,16,0.0,0.0,31,0.00,CLR,,0.00,WeatherDisplay:10.37,2013-03-15 15:00:00,
2013-03-15 11:05:00,68.4,35.7,30.24,North,352,0.0,0.0,30,0.00,CLR,,0.00,WeatherDisplay:10.37,2013-03-15 15:05:00,
2013-03-15 11:10:00,68.4,34.8,30.23,North,357,0.0,0.0,29,0.00,CLR,,0.00,WeatherDisplay:10.37,2013-03-15 15:10:00,
2013-03-15 11:15:00,68.7,35.2,30.23,NNE,19,0.0,0.0,29,0.00,CLR,,0.00,WeatherDisplay:10.37,2013-03-15 15:15:00,
2013-03-15 11:20:00,68.8,34.3,30.23,West,264,0.0,0.0,28,0.00,CLR,,0.00,WeatherDisplay:10.37,2013-03-15 15:20:00,
2013-03-15 11:25:00,69.3,33.8,30.23,SSW,203,0.0,0.0,27,0.00,CLR,,0.00,WeatherDisplay:10.37,2013-03-15 15:25:00,
2013-03-15 11:30:00,69.3,33.8,30.23,South,186,0.0,0.0,27,0.00,CLR,,0.00,WeatherDisplay:10.37,2013-03-15 15:30:00,
2013-03-15 11:35:00,69.8,33.4,30.23,SSE,149,0.0,0.0,26,0.00,CLR,,0.00,WeatherDisplay:10.37,2013-03-15 15:35:00,
2013-03-15 11:40:00,70.3,33.8,30.23,North,3,1.0,3.0,26,0.00,CLR,,0.00,WeatherDisplay:10.37,2013-03-15 15:40:00,
2013-03-15 11:45:00,70.7,33.1,30.23,North,9,0.0,3.0,25,0.00,CLR,,0.00,WeatherDisplay:10.37,2013-03-15 15:45:00,
2013-03-15 11:50:00,71.2,31.4,30.24,North,6,0.0,0.0,23,0.00,CLR,,0.00,WeatherDisplay:10.37,2013-03-15 15:50:00,
2013-03-15 11:55:00,71.6,31.8,30.24,West,263,0.0,0.0,23,0.00,CLR,,0.00,WeatherDisplay:10.37,2013-03-15 15:55:00,
2013-03-15 12:00:00,72.0,31.0,30.24,WSW,251,0.0,0.0,22,0.00,CLR,,0.00,WeatherDisplay:10.37,2013-03-15 16:00:00,
2013-03-15 12:05:00,72.3,30.1,30.24,SW,229,0.0,0.0,21,0.00,CLR,,0.00,WeatherDisplay:10.37,2013-03-15 16:05:00,
2013-03-15 12:10:00,72.5,27.9,30.23,NNW,332,1.0,5.0,19,0.00,CLR,,0.00,WeatherDisplay:10.37,2013-03-15 16:10:00,
2013-03-15 12:15:00,72.5,27.9,30.24,North,2,0.0,0.0,19,0.00,CLR,,0.00,WeatherDisplay:10.37,2013-03-15 16:15:00,
2013-03-15 12:20:00,72.8,28.1,30.24,North,0,0.0,0.0,19,0.00,CLR,,0.00,WeatherDisplay:10.37,2013-03-15 16:20:00,
2013-03-15 12:30:00,74.5,29.5,30.23,South,178,0.0,0.0,19,0.00,CLR,,0.00,WeatherDisplay:10.37,2013-03-15 16:30:00,
2013-03-15 12:35:00,76.2,30.9,30.23,West,276,0.0,0.0,19,0.00,CLR,,0.00,WeatherDisplay:10.37,2013-03-15 16:35:00,
2013-03-15 12:40:00,77.2,31.7,30.23,NNW,336,0.0,0.0,19,0.00,CLR,,0.00,WeatherDisplay:10.37,2013-03-15 16:40:00,
2013-03-15 12:45:00,77.5,32.0,30.22,North,359,0.0,0.0,19,0.00,CLR,,0.00,WeatherDisplay:10.37,2013-03-15 16:45:00,
2013-03-15 12:50:00,78.1,32.4,30.23,NNE,13,0.0,0.0,19,0.00,CLR,,0.00,WeatherDisplay:10.37,2013-03-15 16:50:00,
2013-03-15 12:55:00,78.4,32.7,30.22,NNE,22,0.0,0.0,19,0.00,CLR,,0.00,WeatherDisplay:10.37,2013-03-15 16:55:00,
2013-03-15 13:00:00,78.9,33.1,30.22,NNW,333,0.0,0.0,19,0.00,CLR,,0.00,WeatherDisplay:10.37,2013-03-15 17:00:00,
2013-03-15 13:05:00,79.5,33.6,30.22,SSW,192,0.0,0.0,19,0.00,CLR,,0.00,WeatherDisplay:10.37,2013-03-15 17:05:00,
2013-03-15 13:10:00,79.9,33.9,30.22,East,90,0.0,0.0,19,0.00,CLR,,0.00,WeatherDisplay:10.37,2013-03-15 17:10:00,
2013-03-15 13:15:00,80.2,34.2,30.21,North,353,0.0,0.0,19,0.00,CLR,,0.00,WeatherDisplay:10.37,2013-03-15 17:15:00,
2013-03-15 13:20:00,80.6,34.5,30.20,NNW,333,0.0,0.0,19,0.00,CLR,,0.00,WeatherDisplay:10.37,2013-03-15 17:20:00,
2013-03-15 13:25:00,80.8,34.7,30.20,North,350,0.0,0.0,19,0.00,CLR,,0.00,WeatherDisplay:10.37,2013-03-15 17:25:00,
2013-03-15 13:30:00,80.7,34.6,30.19,North,355,1.0,2.0,19,0.00,CLR,,0.00,WeatherDisplay:10.37,2013-03-15 17:30:00,
2013-03-15 13:35:00,80.9,34.8,30.20,NNW,342,0.0,0.0,19,0.00,CLR,,0.00,WeatherDisplay:10.37,2013-03-15 17:35:00,
2013-03-15 13:40:00,81.1,35.0,30.19,NNW,341,0.0,0.0,19,0.00,CLR,,0.00,WeatherDisplay:10.37,2013-03-15 17:40:00,
2013-03-15 13:45:00,81.6,35.3,30.19,NNW,332,0.0,0.0,19,0.00,CLR,,0.00,WeatherDisplay:10.37,2013-03-15 17:45:00,
2013-03-15 13:50:00,82.0,35.7,30.19,South,174,0.0,0.0,19,0.00,CLR,,0.00,WeatherDisplay:10.37,2013-03-15 17:50:00,
2013-03-15 13:55:00,82.0,35.7,30.19,South,175,0.0,0.0,19,0.00,CLR,,0.00,WeatherDisplay:10.37,2013-03-15 17:55:00,
2013-03-15 14:05:00,81.3,35.1,30.19,West,281,0.0,0.0,19,0.00,CLR,,0.00,WeatherDisplay:10.37,2013-03-15 18:05:00,
2013-03-15 14:10:00,81.3,35.1,30.18,WNW,293,0.0,0.0,19,0.00,CLR,,0.00,WeatherDisplay:10.37,2013-03-15 18:10:00,
2013-03-15 14:15:00,81.6,35.3,30.18,NNW,338,0.0,0.0,19,0.00,CLR,,0.00,WeatherDisplay:10.37,2013-03-15 18:15:00,
2013-03-15 14:20:00,81.5,35.2,30.17,NNW,348,0.0,0.0,19,0.00,CLR,,0.00,WeatherDisplay:10.37,2013-03-15 18:20:00,
2013-03-15 14:25:00,81.7,35.4,30.17,North,359,0.0,0.0,19,0.00,CLR,,0.00,WeatherDisplay:10.37,2013-03-15 18:25:00,
2013-03-15 14:30:00,81.3,35.1,30.17,NNE,13,0.0,0.0,19,0.00,CLR,,0.00,WeatherDisplay:10.37,2013-03-15 18:30:00,
2013-03-15 14:35:00,81.3,35.1,30.16,NNE,22,0.0,0.0,19,0.00,CLR,,0.00,WeatherDisplay:10.37,2013-03-15 18:35:00,
2013-03-15 14:40:00,81.9,35.5,30.16,North,351,0.0,0.0,19,0.00,CLR,,0.00,WeatherDisplay:10.37,2013-03-15 18:40:00,
2013-03-15 14:45:00,82.4,36.0,30.16,NW,321,0.0,0.0,19,0.00,CLR,,0.00,WeatherDisplay:10.37,2013-03-15 18:45:00,
2013-03-15 14:50:00,82.9,36.4,30.16,WSW,243,0.0,0.0,19,0.00,CLR,,0.00,WeatherDisplay:10.37,2013-03-15 18:50:00,
2013-03-15 14:55:00,83.3,36.7,30.15,SSE,161,0.0,0.0,19,0.00,CLR,,0.00,WeatherDisplay:10.37,2013-03-15 18:55:00,
2013-03-15 15:00:00,83.3,36.7,30.15,ESE,107,0.0,0.0,19,0.00,CLR,,0.00,WeatherDisplay:10.37,2013-03-15 19:00:00,
2013-03-15 15:05:00,83.3,36.7,30.15,ENE,71,0.0,0.0,19,0.00,CLR,,0.00,WeatherDisplay:10.37,2013-03-15 19:05:00,
2013-03-15 15:10:00,83.1,36.6,30.15,North,9,0.0,0.0,19,0.00,CLR,,0.00,WeatherDisplay:10.37,2013-03-15 19:10:00,
2013-03-15 15:15:00,82.8,36.3,30.15,NNW,327,0.0,0.0,19,0.00,CLR,,0.00,WeatherDisplay:10.37,2013-03-15 19:15:00,
2013-03-15 15:20:00,81.9,35.5,30.15,NNW,336,0.0,0.0,19,0.00,CLR,,0.00,WeatherDisplay:10.37,2013-03-15 19:20:00,
2013-03-15 15:25:00,81.2,35.0,30.14,NNE,27,0.0,0.0,19,0.00,CLR,,0.00,WeatherDisplay:10.37,2013-03-15 19:25:00,
2013-03-15 15:30:00,79.8,33.8,30.14,ENE,71,0.0,0.0,19,0.00,CLR,,0.00,WeatherDisplay:10.37,2013-03-15 19:30:00,
2013-03-15 15:35:00,79.2,33.3,30.14,South,190,0.0,2.0,19,0.00,CLR,,0.00,WeatherDisplay:10.37,2013-03-15 19:35:00,
2013-03-15 15:40:00,79.3,33.5,30.14,SW,222,0.0,0.0,19,0.00,CLR,,0.00,WeatherDisplay:10.37,2013-03-15 19:40:00,
2013-03-15 15:45:00,79.5,33.6,30.14,SSW,210,0.0,0.0,19,0.00,CLR,,0.00,WeatherDisplay:10.37,2013-03-15 19:45:00,
2013-03-15 15:50:00,79.5,33.6,30.14,South,186,0.0,0.0,19,0.00,CLR,,0.00,WeatherDisplay:10.37,2013-03-15 19:50:00,
2013-03-15 15:55:00,79.2,33.3,30.14,SSW,200,0.0,0.0,19,0.00,CLR,,0.00,WeatherDisplay:10.37,2013-03-15 19:55:00,
2013-03-15 16:00:00,79.0,33.2,30.13,SW,220,0.0,0.0,19,0.00,CLR,,0.00,WeatherDisplay:10.37,2013-03-15 20:00:00,
2013-03-15 16:05:00,78.6,32.9,30.14,SW,218,0.0,0.0,19,0.00,CLR,,0.00,WeatherDisplay:10.37,2013-03-15 20:05:00,
2013-03-15 16:10:00,78.4,32.7,30.13,SSW,211,2.0,3.0,19,0.00,CLR,,0.00,WeatherDisplay:10.37,2013-03-15 20:10:00,
2013-03-15 16:20:00,77.7,32.1,30.13,SSE,162,3.0,3.0,19,0.00,CLR,,0.00,WeatherDisplay:10.37,2013-03-15 20:20:00,
2013-03-15 16:25:00,77.7,32.1,30.12,South,178,0.0,3.0,19,0.00,CLR,,0.00,WeatherDisplay:10.37,2013-03-15 20:25:00,
2013-03-15 16:30:00,77.9,32.3,30.12,SW,216,0.0,0.0,19,0.00,CLR,,0.00,WeatherDisplay:10.37,2013-03-15 20:30:00,
2013-03-15 16:35:00,77.7,32.1,30.12,WSW,240,2.0,2.0,19,0.00,CLR,,0.00,WeatherDisplay:10.37,2013-03-15 20:35:00,
2013-03-15 16:40:00,77.4,31.9,30.12,SW,230,0.0,2.0,19,0.00,CLR,,0.00,WeatherDisplay:10.37,2013-03-15 20:40:00,
2013-03-15 16:50:00,76.6,31.3,30.11,SSW,208,0.0,0.0,19,0.00,CLR,,0.00,WeatherDisplay:10.37,2013-03-15 20:50:00,
2013-03-15 16:55:00,76.4,31.1,30.11,SSW,209,0.0,0.0,19,0.00,CLR,,0.00,WeatherDisplay:10.37,2013-03-15 20:55:00,
2013-03-15 17:00:00,76.1,30.8,30.11,SW,217,0.0,0.0,19,0.00,CLR,,0.00,WeatherDisplay:10.37,2013-03-15 21:00:00,
2013-03-15 17:05:00,75.9,30.7,30.11,SW,234,0.0,0.0,19,0.00,CLR,,0.00,WeatherDisplay:10.37,2013-03-15 21:05:00,
2013-03-15 17:10:00,75.4,30.3,30.11,WSW,247,0.0,5.0,19,0.00,CLR,,0.00,WeatherDisplay:10.37,2013-03-15 21:10:00,
2013-03-15 17:15:00,74.8,29.8,30.11,SW,226,0.0,0.0,19,0.00,CLR,,0.00,WeatherDisplay:10.37,2013-03-15 21:15:00,
2013-03-15 17:20:00,74.5,29.5,30.11,SSW,195,0.0,0.0,19,0.00,CLR,,0.00,WeatherDisplay:10.37,2013-03-15 21:20:00,
2013-03-15 17:25:00,74.0,29.1,30.11,WSW,238,0.0,0.0,19,0.00,CLR,,0.00,WeatherDisplay:10.37,2013-03-15 21:25:00,
2013-03-15 17:30:00,74.1,29.2,30.12,NNW,328,0.0,0.0,19,0.00,CLR,,0.00,WeatherDisplay:10.37,2013-03-15 21:30:00,
2013-03-15 17:35:00,75.6,30.4,30.12,West,273,7.0,7.0,19,0.00,CLR,,0.00,WeatherDisplay:10.37,2013-03-15 21:35:00,
2013-03-15 17:40:00,75.1,30.0,30.12,West,266,0.0,7.0,19,0.00,CLR,,0.00,WeatherDisplay:10.37,2013-03-15 21:40:00,
2013-03-15 17:45:00,74.3,29.3,30.11,WSW,250,0.0,0.0,19,0.00,CLR,,0.00,WeatherDisplay:10.37,2013-03-15 21:45:00,
2013-03-15 17:50:00,73.9,29.0,30.11,SW,229,0.0,3.0,19,0.00,CLR,,0.00,WeatherDisplay:10.37,2013-03-15 21:50:00,
2013-03-15 17:55:00,72.7,28.0,30.11,SW,236,0.0,0.0,19,0.00,CLR,,0.00,WeatherDisplay:10.37,2013-03-15 21:55:00,
2013-03-15 18:00:00,71.8,27.3,30.11,West,261,0.0,0.0,19,0.00,CLR,,0.00,WeatherDisplay:10.37,2013-03-15 22:00:00,
2013-03-15 18:05:00,71.2,26.8,30.11,WSW,243,0.0,0.0,19,0.00,CLR,,0.00,WeatherDisplay:10.37,2013-03-15 22:05:00,
2013-03-15 18:10:00,70.5,26.2,30.11,SW,223,0.0,0.0,19,0.00,CLR,,0.00,WeatherDisplay:10.37,2013-03-15 22:10:00,
2013-03-15 18:15:00,70.0,25.8,30.11,SW,222,0.0,0.0,19,0.00,CLR,,0.00,WeatherDisplay:10.37,2013-03-15 22:15:00,
2013-03-15 18:20:00,69.4,25.3,30.11,SSW,209,0.0,0.0,19,0.00,CLR,,0.00,WeatherDisplay:10.37,2013-03-15 22:20:00,
2013-03-15 18:25:00,69.1,25.1,30.11,SSW,207,0.0,0.0,19,0.00,CLR,,0.00,WeatherDisplay:10.37,2013-03-15 22:25:00,
2013-03-15 18:30:00,68.7,24.8,30.11,SSW,204,0.0,0.0,19,0.00,CLR,,0.00,WeatherDisplay:10.37,2013-03-15 22:30:00,
2013-03-15 18:35:00,68.4,24.5,30.11,SSW,202,0.0,0.0,19,0.00,CLR,,0.00,WeatherDisplay:10.37,2013-03-15 22:35:00,
2013-03-15 18:40:00,68.2,28.9,30.11,SSW,211,0.0,0.0,23,0.00,CLR,,0.00,WeatherDisplay:10.37,2013-03-15 22:40:00,
2013-03-15 18:45:00,67.8,28.6,30.12,WSW,247,0.0,5.0,23,0.00,CLR,,0.00,WeatherDisplay:10.37,2013-03-15 22:45:00,
2013-03-15 18:50:00,67.0,29.0,30.12,West,261,0.0,0.0,24,0.00,CLR,,0.00,WeatherDisplay:10.37,2013-03-15 22:50:00,
2013-03-15 18:55:00,66.6,29.6,30.12,SW,235,0.0,0.0,25,0.00,CLR,,0.00,WeatherDisplay:10.37,2013-03-15 22:55:00,
2013-03-15 19:00:00,66.0,29.2,30.12,SW,220,0.0,0.0,25,0.00,CLR,,0.00,WeatherDisplay:10.37,2013-03-15 23:00:00,
2013-03-15 19:05:00,65.4,29.6,30.12,SW,215,0.0,0.0,26,0.00,CLR,,0.00,WeatherDisplay:10.37,2013-03-15 23:05:00,
2013-03-15 19:10:00,65.0,30.2,30.12,WSW,246,0.0,0.0,27,0.00,CLR,,0.00,WeatherDisplay:10.37,2013-03-15 23:10:00,
2013-03-15 19:15:00,64.6,30.7,30.12,West,274,0.0,0.0,28,0.00,CLR,,0.00,WeatherDisplay:10.37,2013-03-15 23:15:00,
2013-03-15 19:20:00,64.1,30.3,30.12,West,270,0.0,0.0,28,0.00,CLR,,0.00,WeatherDisplay:10.37,2013-03-15 23:20:00,
2013-03-15 19:25:00,63.6,30.8,30.12,WSW,255,0.0,0.0,29,0.00,CLR,,0.00,WeatherDisplay:10.37,2013-03-15 23:25:00,
2013-03-15 19:30:00,63.1,31.2,30.12,SW,225,0.0,0.0,30,0.00,CLR,,0.00,WeatherDisplay:10.37,2013-03-15 23:30:00,
2013-03-15 19:35:00,62.8,31.7,30.12,SSW,206,0.0,0.0,31,0.00,CLR,,0.00,WeatherDisplay:10.37,2013-03-15 23:35:00,
2013-03-15 19:40:00,62.1,31.0,30.12,SSW,202,0.0,0.0,31,0.00,CLR,,0.00,WeatherDisplay:10.37,2013-03-15 23:40:00,
2013-03-15 19:45:00,61.9,31.7,30.12,SSW,202,0.0,0.0,32,0.00,CLR,,0.00,WeatherDisplay:10.37,2013-03-15 23:45:00,
2013-03-15 19:50:00,61.5,31.3,30.12,SSW,202,0.0,0.0,32,0.00,CLR,,0.00,WeatherDisplay:10.37,2013-03-15 23:50:00,
2013-03-15 19:55:00,61.0,31.6,30.12,SSW,202,0.0,0.0,33,0.00,CLR,,0.00,WeatherDisplay:10.37,2013-03-15 23:55:00,
2013-03-15 20:00:00,60.6,31.3,30.12,SSW,202,0.0,0.0,33,0.00,CLR,,0.00,WeatherDisplay:10.37,2013-03-16 00:00:00,
2013-03-15 20:05:00,60.2,31.0,30.12,SSW,202,0.0,0.0,33,0.00,CLR,,0.00,WeatherDisplay:10.37,2013-03-16 00:05:00,
2013-03-15 20:15:00,59.4,31.0,30.13,SSW,202,0.0,0.0,34,0.00,CLR,,0.00,WeatherDisplay:10.37,2013-03-16 00:15:00,
2013-03-15 20:20:00,58.9,31.3,30.13,SSW,202,0.0,0.0,35,0.00,CLR,,0.00,WeatherDisplay:10.37,2013-03-16 00:20:00,
2013-03-15 20:25:00,58.5,30.9,30.13,SSW,202,0.0,0.0,35,0.00,CLR,,0.00,WeatherDisplay:10.37,2013-03-16 00:25:00,
2013-03-15 20:30:00,58.1,30.5,30.13,SSW,202,0.0,0.0,35,0.00,CLR,,0.00,WeatherDisplay:10.37,2013-03-16 00:30:00,
2013-03-15 20:35:00,57.6,31.5,30.13,SSW,202,0.0,0.0,37,0.00,CLR,,0.00,WeatherDisplay:10.37,2013-03-16 00:35:00,
2013-03-15 20:40:00,57.4,31.3,30.13,SSW,202,0.0,0.0,37,0.00,CLR,,0.00,WeatherDisplay:10.37,2013-03-16 00:40:00,
2013-03-15 20:50:00,56.7,31.3,30.13,SSW,202,0.0,0.0,38,0.00,CLR,,0.00,WeatherDisplay:10.37,2013-03-16 00:50:00,
2013-03-15 20:55:00,56.3,31.0,30.13,SSW,202,0.0,0.0,38,0.00,CLR,,0.00,WeatherDisplay:10.37,2013-03-16 00:55:00,
2013-03-15 21:00:00,55.9,31.3,30.13,SSW,202,0.0,0.0,39,0.00,CLR,,0.00,WeatherDisplay:10.37,2013-03-16 01:00:00,
2013-03-15 21:05:00,55.6,31.6,30.13,SSW,202,0.0,0.0,40,0.00,CLR,,0.00,WeatherDisplay:10.37,2013-03-16 01:05:00,
2013-03-15 21:10:00,55.4,31.5,30.13,SSW,202,0.0,0.0,40,0.00,CLR,,0.00,WeatherDisplay:10.37,2013-03-16 01:10:00,
2013-03-15 21:15:00,55.0,31.7,30.13,SSW,202,0.0,0.0,41,0.00,CLR,,0.00,WeatherDisplay:10.37,2013-03-16 01:15:00,
2013-03-15 21:20:00,54.9,31.6,30.13,SSW,202,0.0,0.0,41,0.00,CLR,,0.00,WeatherDisplay:10.37,2013-03-16 01:20:00,
2013-03-15 21:25:00,54.7,32.0,30.13,SSW,202,0.0,0.0,42,0.00,CLR,,0.00,WeatherDisplay:10.37,2013-03-16 01:25:00,
2013-03-15 21:30:00,54.5,31.9,30.13,SSW,202,0.0,0.0,42,0.00,CLR,,0.00,WeatherDisplay:10.37,2013-03-16 01:30:00,
2013-03-15 21:35:00,54.3,32.3,30.14,SSW,202,0.0,0.0,43,0.00,CLR,,0.00,WeatherDisplay:10.37,2013-03-16 01:35:00,
2013-03-15 21:40:00,54.0,32.5,30.14,SSW,202,0.0,0.0,44,0.00,CLR,,0.00,WeatherDisplay:10.37,2013-03-16 01:40:00,
2013-03-15 21:45:00,54.0,32.5,30.13,SSW,202,0.0,0.0,44,0.00,CLR,,0.00,WeatherDisplay:10.37,2013-03-16 01:45:00,
2013-03-15 21:50:00,53.8,32.4,30.13,SSW,202,0.0,0.0,44,0.00,CLR,,0.00,WeatherDisplay:10.37,2013-03-16 01:50:00,
2013-03-15 21:55:00,53.4,32.6,30.14,SSW,202,0.0,0.0,45,0.00,CLR,,0.00,WeatherDisplay:10.37,2013-03-16 01:55:00,
2013-03-15 22:00:00,53.3,33.0,30.13,SSW,202,0.0,0.0,46,0.00,CLR,,0.00,WeatherDisplay:10.37,2013-03-16 02:00:00,
2013-03-15 22:05:00,53.2,33.0,30.14,SSW,202,0.0,0.0,46,0.00,CLR,,0.00,WeatherDisplay:10.37,2013-03-16 02:05:00,
2013-03-15 22:10:00,53.1,33.3,30.14,SSW,202,0.0,0.0,47,0.00,CLR,,0.00,WeatherDisplay:10.37,2013-03-16 02:10:00,
2013-03-15 22:15:00,53.0,33.2,30.14,SSW,202,0.0,0.0,47,0.00,CLR,,0.00,WeatherDisplay:10.37,2013-03-16 02:15:00,
2013-03-15 22:20:00,52.7,33.0,30.14,SSW,202,0.0,0.0,47,0.00,CLR,,0.00,WeatherDisplay:10.37,2013-03-16 02:20:00,
2013-03-15 22:25:00,52.5,33.4,30.14,SSW,202,0.0,0.0,48,0.00,CLR,,0.00,WeatherDisplay:10.37,2013-03-16 02:25:00,
2013-03-15 22:30:00,52.4,33.8,30.14,SSW,202,0.0,0.0,49,0.00,CLR,,0.00,WeatherDisplay:10.37,2013-03-16 02:30:00,
2013-03-15 22:35:00,52.3,33.7,30.14,SSW,202,0.0,0.0,49,0.00,CLR,,0.00,WeatherDisplay:10.37,2013-03-16 02:35:00,
2013-03-15 22:40:00,52.2,33.6,30.14,SSW,202,0.0,0.0,49,0.00,CLR,,0.00,WeatherDisplay:10.37,2013-03-16 02:40:00,
2013-03-15 22:45:00,52.0,34.0,30.14,SSW,202,0.0,0.0,50,0.00,CLR,,0.00,WeatherDisplay:10.37,2013-03-16 02:45:00,
2013-03-15 22:50:00,52.0,33.9,30.14,SSW,202,0.0,0.0,50,0.00,CLR,,0.00,WeatherDisplay:10.37,2013-03-16 02:50:00,
2013-03-15 22:55:00,51.8,34.2,30.14,SSW,202,0.0,0.0,51,0.00,CLR,,0.00,WeatherDisplay:10.37,2013-03-16 02:55:00,
2013-03-15 23:00:00,51.8,34.2,30.14,SSW,202,0.0,0.0,51,0.00,CLR,,0.00,WeatherDisplay:10.37,2013-03-16 03:00:00,
2013-03-15 23:05:00,51.4,33.9,30.14,SSW,202,0.0,0.0,51,0.00,CLR,,0.00,WeatherDisplay:10.37,2013-03-16 03:05:00,
2013-03-15 23:10:00,51.4,33.9,30.14,SSW,202,0.0,0.0,51,0.00,CLR,,0.00,WeatherDisplay:10.37,2013-03-16 03:10:00,
2013-03-15 23:15:00,51.3,34.2,30.14,SSW,202,0.0,0.0,52,0.00,CLR,,0.00,WeatherDisplay:10.37,2013-03-16 03:15:00,
2013-03-15 23:20:00,51.3,34.2,30.14,SSW,202,0.0,0.0,52,0.00,CLR,,0.00,WeatherDisplay:10.37,2013-03-16 03:20:00,
2013-03-15 23:25:00,51.2,34.2,30.14,SSW,202,0.0,0.0,52,0.00,CLR,,0.00,WeatherDisplay:10.37,2013-03-16 03:25:00,
2013-03-15 23:30:00,50.9,34.4,30.14,SSW,202,0.0,0.0,53,0.00,CLR,,0.00,WeatherDisplay:10.37,2013-03-16 03:30:00,
2013-03-15 23:35:00,50.9,34.4,30.14,SSW,202,0.0,0.0,53,0.00,CLR,,0.00,WeatherDisplay:10.37,2013-03-16 03:35:00,
2013-03-15 23:40:00,50.9,34.4,30.14,SSW,202,0.0,0.0,53,0.00,CLR,,0.00,WeatherDisplay:10.37,2013-03-16 03:40:00,
2013-03-15 23:45:00,50.7,35.1,30.14,SSW,202,0.0,0.0,55,0.00,CLR,,0.00,WeatherDisplay:10.37,2013-03-16 03:45:00,
2013-03-15 23:50:00,50.7,35.1,30.14,SSW,202,0.0,0.0,55,0.00,CLR,,0.00,WeatherDisplay:10.37,2013-03-16 03:50:00,
2013-03-15 23:55:00,50.7,35.1,30.14,SSW,202,0.0,0.0,55,0.00,CLR,,0.00,WeatherDisplay:10.37,2013-03-16 03:55:00,